Tracking 25686 objects as of 26-May-2022
HD Live streaming from Space Station
objects crossing your sky now

EUTELSAT 1-F4 (ECS 4)

Track EUTELSAT 1-F4 (ECS 4) now!
EUTELSAT 1-F4 (ECS 4) is classified as:


NORAD ID: 18351
Int'l Code: 1987-078B
Perigee: 36,186.5 km
Apogee: 36,299.6 km
Inclination: 14.9 °
Period: 1,459.1 minutes
Semi major axis: 42614 km
RCS: 3.9811 m2 (large)
Launch date: September 16, 1987
Source: European Telecommunications Satellite Organization (EUTE)
Launch site: FRENCH GUIANA (FRGUI)
aabbcc
Your satellite tracking list
Your tracking list is empty




NASA's NSSDC Master Catalog

Two Line Element Set (TLE):
1 18351U 87078B   22145.42676267 -.00000241  00000-0  00000-0 0  9990
2 18351  14.8735 353.0363 0013269  33.0922 141.7365  0.98689989112110
Source of the keplerian elements: AFSPC